Lid_Strength_Index
22 23 23 23 23 23 23 23 23 22 22 22 21 20 20 19 18 17 17 16 16 15 14 14 13 12 13 13 12 12 11 11 9 6 4 5 6 6 7 7 6 1 2
23 23 24 24 24 24 24 23 23 23 23 23 22 21 21 20 19 19 19 18 17 16 15 13 12 12 13 13 14 13 11 10 8 7 5 5 6 6 8 7 8 2 1
24 24 25 25 25 25 24 24 23 23 24 24 23 23 22 22 21 20 20 19 18 16 14 14 14 13 15 15 15 14 11 10 7 7 6 6 7 7 8 8 8 5 2
25 25 25 25 25 25 25 24 24 24 25 25 24 24 23 23 22 22 21 20 18 17 16 15 15 15 15 15 15 15 12 11 9 7 7 8 7 9 9 10 11 3 4
26 26 26 26 25 25 25 25 25 25 25 25 25 25 24 23 22 22 20 18 17 16 16 16 15 15 15 14 15 14 12 11 11 8 8 9 11 12 10 11 10 5 5
26 26 26 26 26 26 26 26 26 26 26 26 25 25 24 23 20 19 17 17 16 17 17 16 15 14 14 13 12 12 11 12 12 9 10 11 12 12 12 12 10 9 7
25 26 27 27 28 27 27 27 27 28 27 26 26 25 24 23 20 18 16 16 17 17 17 16 15 14 14 13 12 12 11 9 9 9 11 12 12 12 13 13 12 11 5
26 28 28 28 29 28 29 28 28 27 27 27 26 26 24 22 19 18 15 16 17 16 16 15 14 14 13 13 14 13 12 10 9 7 10 11 11 11 13 14 14 9 5
27 28 28 29 30 30 32 30 28 28 28 28 25 25 25 24 20 16 15 17 17 17 15 14 13 13 11 11 13 14 13 12 9 7 9 10 11 11 12 14 15 10 8
28 28 29 29 32 32 30 30 28 29 27 25 25 24 24 23 19 15 15 17 18 18 16 14 12 12 11 11 12 12 14 13 11 10 11 11 12 13 13 13 15 16 7
28 29 30 30 32 32 31 30 30 30 27 27 25 23 22 21 19 15 15 17 17 17 17 15 13 12 11 9 9 11 12 11 10 9 11 12 13 13 13 13 10 13 7
30 30 31 32 32 30 33 31 30 29 29 27 25 22 21 19 17 15 15 15 15 17 17 15 14 12 12 10 10 9 9 10 10 10 13 14 14 14 13 12 8 8 4
32 33 32 32 31 31 33 30 30 28 27 25 22 23 22 19 17 15 15 15 16 17 16 15 13 13 12 11 11 10 10 10 10 11 13 14 13 13 13 12 6 5 5
33 31 29 30 30 29 28 27 29 26 25 23 22 23 22 19 17 16 17 18 18 17 16 16 14 14 13 12 12 11 10 9 9 10 13 12 13 13 14 8 6 7 7
31 30 30 29 31 28 26 27 25 23 21 21 22 21 21 19 17 15 17 19 19 17 18 19 17 16 15 14 13 11 10 10 10 10 13 13 13 14 13 6 7 7 8
30 30 30 30 30 27 27 27 23 20 19 19 18 18 17 14 14 15 16 17 17 17 21 21 21 20 20 18 18 17 12 10 10 11 12 12 13 14 9 7 7 8 9
31 31 30 30 29 29 29 29 30 27 22 21 20 17 15 14 15 15 17 19 19 20 24 23 22 21 21 20 20 20 19 17 17 12 11 12 13 12 10 10 9 9 9
32 31 32 31 31 31 31 31 31 32 32 29 24 19 16 16 16 16 18 22 25 24 24 24 23 22 22 22 21 21 21 20 20 19 15 12 12 11 11 11 10 10 11
31 32 32 33 32 33 32 32 32 32 32 31 28 23 21 18 18 19 20 25 26 26 25 24 24 22 22 22 22 22 23 24 23 22 20 13 11 12 11 11 10 11 11
31 31 33 33 33 33 33 33 32 33 32 32 30 28 22 24 26 26 25 26 26 26 25 25 24 23 22 22 24 23 24 25 24 23 23 12 11 11 11 11 10 11 11
32 32 32 33 34 35 36 36 34 34 34 34 32 30 17 27 27 27 27 26 27 26 25 25 24 24 21 22 24 24 24 25 25 25 24 22 11 12 11 10 11 11 11
32 34 34 35 34 33 36 35 34 35 34 34 32 30 22 27 27 27 27 26 26 26 25 25 23 23 22 21 22 24 23 25 26 26 25 24 20 11 12 11 11 11 11
32 33 34 34 34 34 34 36 35 34 33 34 33 31 31 30 29 27 27 27 26 26 25 24 23 23 22 21 20 22 22 24 25 25 25 24 21 13 11 11 12 12 12
31 31 32 35 34 36 35 36 34 34 34 33 35 34 33 32 30 28 28 27 26 26 25 24 23 23 23 21 20 21 21 22 24 25 24 24 22 14 11 11 11 11 11
32 32 32 34 36 35 36 36 34 38 37 34 33 33 33 31 30 29 28 28 27 26 25 24 23 23 22 20 21 21 21 22 24 25 24 25 25 22 15 12 12 11 11
33 33 34 36 37 39 39 36 37 35 37 34 33 34 33 32 31 30 29 29 28 27 25 24 23 23 21 19 20 19 20 19 23 24 24 25 26 26 24 22 16 13 11